| time (UTC) | temp F | wind direction | speed knots | gust knots | rain 1hr in | rain 24hr in | rain mn in | humidity % | barometer mb |
| 20260906071707 | 71 | 68 | 0.0 | 0.0 | 0.00 | 0.00 | 0.00 | 99 | 1008.8 |
| 20260906071207 | 71 | 68 | 0.0 | 0.0 | 0.00 | 0.00 | 0.00 | 99 | 1008.6 |
| 20260906070703 | 71 | 68 | 0.0 | 0.0 | 0.00 | 0.00 | 0.00 | 99 | 1008.4 |
| 20260906070159 | 72 | 68 | 0.0 | 0.0 | 0.00 | 0.00 | 0.00 | 99 | 1008.5 |
| 20260906065658 | 72 | 70 | 0.0 | 0.0 | 0.00 | 0.00 | 0.00 | 99 | 1008.3 |
| 20260906065154 | 72 | 68 | 0.0 | 0.0 | 0.00 | 0.00 | 0.00 | 99 | 1008.5 |
| 20260906064648 | 72 | 68 | 0.0 | 0.0 | 0.00 | 0.00 | 0.00 | 99 | 1008.8 |
| 20260906064144 | 72 | 65 | 0.0 | 0.0 | 0.00 | 0.00 | 0.00 | 99 | 1008.9 |
| 20260906063639 | 72 | 68 | 0.0 | 0.0 | 0.00 | 0.00 | 0.00 | 99 | 1009.0 |
| 20260906063135 | 72 | 68 | 0.0 | 0.0 | 0.00 | 0.00 | 0.00 | 99 | 1008.8 |
| 20260906062631 | 72 | 68 | 0.0 | 0.0 | 0.00 | 0.00 | 0.00 | 99 | 1009.1 |
| 20260906062129 | 72 | 66 | 0.0 | 0.0 | 0.00 | 0.00 | 0.00 | 99 | 1009.1 |
| 20260906061626 | 72 | 66 | 0.0 | 0.0 | 0.00 | 0.00 | 0.00 | 99 | 1009.3 |
| 20260906061125 | 72 | 73 | 0.0 | 0.0 | 0.00 | 0.00 | 0.00 | 99 | 1009.3 |
| 20260906060622 | 72 | 62 | 0.0 | 0.0 | 0.00 | 0.00 | 0.00 | 99 | 1009.3 |
| 20260906060119 | 72 | 69 | 0.0 | 0.0 | 0.00 | 0.00 | 0.00 | 99 | 1009.1 |
| 20260906055614 | 72 | 67 | 0.0 | 0.0 | 0.00 | 0.00 | 0.00 | 99 | 1009.2 |
| 20260906055109 | 72 | 67 | 0.0 | 0.0 | 0.00 | 0.00 | 0.00 | 99 | 1009.1 |
| 20260906054604 | 72 | 65 | 0.0 | 0.0 | 0.00 | 0.00 | 0.00 | 99 | 1009.0 |
| 20260906054059 | 72 | 64 | 0.0 | 0.0 | 0.00 | 0.00 | 0.00 | 99 | 1008.9 |
| 20260906053556 | 72 | 63 | 0.0 | 0.0 | 0.00 | 0.00 | 0.00 | 99 | 1008.7 |
| 20260906053051 | 72 | 62 | 0.0 | 0.0 | 0.00 | 0.00 | 0.00 | 99 | 1009.0 |
| 20260906052546 | 72 | 65 | 0.0 | 0.0 | 0.00 | 0.00 | 0.00 | 99 | 1009.0 |
| 20260906052044 | 73 | 66 | 0.0 | 0.0 | 0.00 | 0.00 | 0.00 | 99 | 1009.0 |
| 20260906051538 | 73 | 69 | 0.0 | 0.0 | 0.00 | 0.00 | 0.00 | 99 | 1009.1 |
| 20260906051034 | 73 | 68 | 0.0 | 0.0 | 0.00 | 0.00 | 0.00 | 99 | 1009.0 |
| 20260906050529 | 73 | 68 | 0.0 | 0.0 | 0.00 | 0.00 | 0.00 | 99 | 1009.0 |
| 20260906050024 | 73 | 65 | 0.0 | 0.0 | 0.00 | 0.00 | 0.00 | 99 | 1009.1 |
| 20260906045522 | 73 | 65 | 0.0 | 0.0 | 0.00 | 0.00 | 0.00 | 99 | 1008.9 |
| 20260906042913 | 74 | 63 | 0.0 | 0.0 | 0.00 | 0.00 | 0.00 | 99 | 1008.8 |
| 20260906042411 | 74 | 63 | 0.0 | 0.0 | 0.00 | 0.00 | 0.00 | 99 | 1008.8 |
| 20260906041907 | 74 | 69 | 0.0 | 0.9 | 0.00 | 0.00 | 0.00 | 99 | 1008.8 |
| 20260906041403 | 74 | 70 | 0.9 | 0.9 | 0.00 | 0.00 | 0.00 | 99 | 1008.8 |
| 20260906040857 | 74 | 70 | 0.0 | 0.0 | 0.00 | 0.00 | 0.00 | 99 | 1008.4 |
| 20260906040352 | 74 | 68 | 0.0 | 0.0 | 0.00 | 0.00 | 0.00 | 99 | 1008.5 |
| 20260906035847 | 74 | 66 | 0.0 | 0.0 | 0.00 | 0.03 | 0.03 | 99 | 1008.9 |
| 20260906035343 | 74 | 66 | 0.0 | 0.0 | 0.00 | 0.03 | 0.03 | 99 | 1008.9 |
| 20260906034838 | 74 | 66 | 0.0 | 0.0 | 0.00 | 0.03 | 0.03 | 99 | 1008.9 |
| 20260906034333 | 74 | 61 | 0.0 | 0.0 | 0.00 | 0.03 | 0.03 | 99 | 1009.0 |
| 20260906033829 | 74 | 69 | 0.0 | 0.0 | 0.00 | 0.03 | 0.03 | 99 | 1008.8 |
| 20260906033328 | 74 | 69 | 0.0 | 0.0 | 0.00 | 0.03 | 0.03 | 99 | 1008.7 |
| 20260906032824 | 74 | 66 | 0.0 | 0.0 | 0.00 | 0.03 | 0.03 | 99 | 1008.7 |
| 20260906032320 | 74 | 68 | 0.0 | 0.0 | 0.00 | 0.03 | 0.03 | 99 | 1008.7 |
| 20260906031815 | 74 | 68 | 0.0 | 0.0 | 0.00 | 0.03 | 0.03 | 99 | 1008.8 |
| 20260906031311 | 74 | 68 | 0.0 | 0.0 | 0.00 | 0.03 | 0.03 | 99 | 1008.8 |
| 20260906030810 | 74 | 69 | 0.0 | 0.0 | 0.00 | 0.03 | 0.03 | 99 | 1009.1 |
| 20260906030305 | 74 | 69 | 0.0 | 0.0 | 0.00 | 0.03 | 0.03 | 99 | 1008.9 |
| 20260906025805 | 74 | 69 | 0.0 | 0.0 | 0.00 | 0.03 | 0.03 | 99 | 1009.1 |
| 20260906025259 | 74 | 69 | 0.0 | 0.0 | 0.00 | 0.03 | 0.03 | 99 | 1009.2 |
| 20260906024758 | 74 | 70 | 0.0 | 0.0 | 0.00 | 0.03 | 0.03 | 99 | 1009.0 |
| 20260906024257 | 74 | 69 | 0.0 | 0.0 | 0.00 | 0.03 | 0.03 | 99 | 1009.4 |
| 20260906023753 | 74 | 68 | 0.0 | 0.0 | 0.00 | 0.03 | 0.03 | 99 | 1009.2 |
| 20260906023248 | 74 | 67 | 0.0 | 0.0 | 0.00 | 0.03 | 0.03 | 99 | 1009.1 |
| 20260906022744 | 74 | 67 | 0.0 | 0.0 | 0.00 | 0.03 | 0.03 | 99 | 1009.2 |
| 20260906022239 | 74 | 67 | 0.0 | 0.0 | 0.00 | 0.03 | 0.03 | 99 | 1009.3 |
| 20260906021736 | 74 | 68 | 0.0 | 0.0 | 0.00 | 0.03 | 0.03 | 99 | 1009.2 |
| 20260906021234 | 74 | 70 | 0.0 | 0.0 | 0.00 | 0.03 | 0.03 | 99 | 1009.3 |
| 20260906020729 | 74 | 70 | 0.0 | 0.0 | 0.00 | 0.03 | 0.03 | 99 | 1009.2 |
| 20260906020223 | 75 | 70 | 0.9 | 0.9 | 0.00 | 0.03 | 0.03 | 99 | 1009.0 |
| 20260906015245 | 75 | 70 | 0.0 | 0.0 | 0.00 | 0.03 | 0.03 | 99 | 1008.9 |
| 20260906014740 | 75 | 70 | 0.0 | 0.0 | 0.00 | 0.03 | 0.03 | 99 | 1008.9 |
| 20260906014236 | 75 | 70 | 0.0 | 0.0 | 0.00 | 0.03 | 0.03 | 99 | 1008.9 |
| 20260906013732 | 75 | 70 | 0.0 | 0.0 | 0.00 | 0.03 | 0.03 | 98 | 1008.9 |
| 20260906013231 | 74 | 69 | 0.0 | 0.0 | 0.00 | 0.03 | 0.03 | 98 | 1008.9 |
| 20260906012727 | 74 | 69 | 0.0 | 0.0 | 0.00 | 0.03 | 0.03 | 98 | 1008.7 |
| 20260906012221 | 75 | 69 | 0.0 | 0.0 | 0.00 | 0.03 | 0.03 | 98 | 1008.5 |
| 20260906010939 | 75 | 70 | 0.0 | 0.0 | 0.00 | 0.03 | 0.03 | 98 | 1008.4 |
| 20260906010434 | 75 | 70 | 0.0 | 0.0 | 0.00 | 0.03 | 0.03 | 98 | 1008.4 |
| 20260906005930 | 76 | 74 | 0.9 | 0.9 | 0.00 | 0.03 | 0.03 | 98 | 1008.3 |
| 20260906005430 | 75 | 73 | 0.0 | 0.0 | 0.00 | 0.03 | 0.03 | 98 | 1008.3 |
| 20260906004928 | 76 | 73 | 0.0 | 0.0 | 0.00 | 0.03 | 0.03 | 98 | 1008.5 |
| 20260906004422 | 76 | 73 | 0.0 | 0.0 | 0.00 | 0.03 | 0.03 | 98 | 1008.2 |
| 20260906003918 | 76 | 73 | 0.0 | 0.0 | 0.00 | 0.03 | 0.03 | 98 | 1008.4 |
| 20260906003413 | 76 | 72 | 0.0 | 0.0 | 0.00 | 0.03 | 0.03 | 97 | 1008.1 |
| 20260906002909 | 76 | 73 | 0.0 | 0.0 | 0.00 | 0.03 | 0.03 | 97 | 1008.1 |
| 20260906002409 | 77 | 73 | 0.0 | 0.0 | 0.00 | 0.03 | 0.03 | 96 | 1008.1 |
| 20260906001904 | 77 | 72 | 0.0 | 0.0 | 0.00 | 0.03 | 0.03 | 96 | 1008.2 |
| 20260906001400 | 77 | 72 | 0.0 | 0.0 | 0.00 | 0.03 | 0.03 | 96 | 1008.3 |
| 20260906000859 | 77 | 73 | 0.0 | 0.0 | 0.00 | 0.03 | 0.03 | 96 | 1008.3 |
| 20260906000400 | 77 | 73 | 0.0 | 0.0 | 0.00 | 0.03 | 0.03 | 96 | 1008.4 |
| 20260905235855 | 78 | 73 | 0.0 | 0.0 | 0.00 | 0.03 | 0.03 | 95 | 1008.2 |
| 20260905235349 | 78 | 72 | 0.0 | 0.0 | 0.00 | 0.03 | 0.03 | 95 | 1008.3 |
| 20260905234844 | 78 | 72 | 0.0 | 0.0 | 0.00 | 0.03 | 0.03 | 94 | 1008.3 |
| 20260905234340 | 78 | 72 | 0.0 | 0.0 | 0.00 | 0.03 | 0.03 | 94 | 1008.4 |
| 20260905233835 | 79 | 71 | 0.0 | 0.0 | 0.00 | 0.03 | 0.03 | 93 | 1008.7 |
| 20260905233329 | 79 | 71 | 0.0 | 0.0 | 0.00 | 0.03 | 0.03 | 93 | 1008.8 |
| 20260905232829 | 79 | 71 | 0.0 | 0.0 | 0.00 | 0.03 | 0.03 | 92 | 1008.7 |
| 20260905232325 | 79 | 71 | 0.0 | 0.0 | 0.00 | 0.03 | 0.03 | 91 | 1008.6 |
| 20260905231821 | 80 | 71 | 0.0 | 0.0 | 0.00 | 0.03 | 0.03 | 91 | 1008.5 |
| 20260905231315 | 80 | 71 | 0.0 | 0.0 | 0.00 | 0.03 | 0.03 | 90 | 1008.4 |
| 20260905230812 | 80 | 71 | 0.0 | 0.0 | 0.00 | 0.03 | 0.03 | 89 | 1008.4 |
| 20260905230310 | 80 | 71 | 0.0 | 0.0 | 0.00 | 0.03 | 0.03 | 89 | 1008.3 |
| 20260905225809 | 81 | 71 | 0.0 | 0.0 | 0.00 | 0.03 | 0.03 | 89 | 1008.5 |
| 20260905225306 | 81 | 71 | 0.0 | 0.0 | 0.00 | 0.03 | 0.03 | 89 | 1008.5 |
| 20260905224804 | 81 | 71 | 0.0 | 0.0 | 0.00 | 0.03 | 0.03 | 89 | 1008.6 |
| 20260905224300 | 81 | 71 | 0.0 | 0.0 | 0.00 | 0.03 | 0.03 | 88 | 1008.3 |
| 20260905223755 | 81 | 71 | 0.0 | 0.0 | 0.00 | 0.03 | 0.03 | 88 | 1008.3 |
| 20260905223252 | 81 | 70 | 0.0 | 0.0 | 0.00 | 0.03 | 0.03 | 87 | 1008.3 |
| 20260905222747 | 81 | 70 | 0.0 | 0.0 | 0.00 | 0.03 | 0.03 | 87 | 1008.3 |
| 20260905222246 | 82 | 69 | 0.0 | 0.0 | 0.00 | 0.03 | 0.03 | 85 | 1008.4 |
| 20260905221742 | 82 | 69 | 0.0 | 0.0 | 0.00 | 0.03 | 0.03 | 85 | 1008.5 |
| 20260905221239 | 82 | 69 | 0.0 | 0.0 | 0.00 | 0.03 | 0.03 | 85 | 1008.3 |
| 20260905220734 | 82 | 69 | 0.0 | 0.0 | 0.00 | 0.03 | 0.03 | 86 | 1008.3 |
| 20260905220231 | 82 | 70 | 0.0 | 0.0 | 0.00 | 0.03 | 0.03 | 83 | 1008.3 |
| 20260905215730 | 83 | 68 | 0.9 | 0.9 | 0.00 | 0.03 | 0.03 | 82 | 1008.4 |
| 20260905215226 | 83 | 68 | 0.0 | 0.0 | 0.00 | 0.03 | 0.03 | 81 | 1008.3 |
| 20260905214721 | 83 | 40 | 1.7 | 1.7 | 0.00 | 0.03 | 0.03 | 78 | 1008.5 |
| 20260905214217 | 84 | 55 | 0.9 | 1.7 | 0.00 | 0.03 | 0.03 | 79 | 1008.4 |
| 20260905213712 | 84 | 14 | 0.9 | 1.7 | 0.00 | 0.03 | 0.03 | 75 | 1008.4 |
| 20260905213208 | 85 | 60 | 0.9 | 0.9 | 0.00 | 0.03 | 0.03 | 74 | 1008.2 |
| 20260905212703 | 85 | 47 | 2.6 | 2.6 | 0.00 | 0.03 | 0.03 | 75 | 1008.0 |
| 20260905212202 | 85 | 36 | 2.6 | 2.6 | 0.00 | 0.03 | 0.03 | 74 | 1008.3 |
| 20260905211656 | 85 | 78 | 1.7 | 1.7 | 0.00 | 0.03 | 0.03 | 75 | 1008.3 |
| 20260905211152 | 85 | 59 | 0.9 | 1.7 | 0.00 | 0.03 | 0.03 | 74 | 1008.5 |
| 20260905210648 | 85 | 67 | 0.0 | 0.0 | 0.00 | 0.03 | 0.03 | 75 | 1008.3 |
| 20260905210143 | 86 | 102 | 1.7 | 1.7 | 0.00 | 0.03 | 0.03 | 74 | 1008.3 |
| 20260905205642 | 85 | 61 | 1.7 | 1.7 | 0.00 | 0.03 | 0.03 | 74 | 1008.3 |
| 20260905205142 | 84 | 53 | 1.7 | 1.7 | 0.00 | 0.03 | 0.03 | 77 | 1008.1 |
| 20260905204641 | 84 | 100 | 1.7 | 1.7 | 0.00 | 0.03 | 0.03 | 75 | 1008.2 |
| 20260905204136 | 84 | 44 | 2.6 | 2.6 | 0.00 | 0.03 | 0.03 | 80 | 1008.2 |
| 20260905203631 | 84 | 81 | 0.9 | 1.7 | 0.00 | 0.03 | 0.03 | 79 | 1008.2 |
| 20260905203126 | 84 | 82 | 0.9 | 1.7 | 0.00 | 0.03 | 0.03 | 84 | 1008.3 |
| 20260905202622 | 83 | 72 | 0.0 | 0.9 | 0.00 | 0.03 | 0.03 | 84 | 1008.5 |
| 20260905202117 | 82 | 75 | 0.9 | 1.7 | 0.00 | 0.03 | 0.03 | 88 | 1008.1 |
| 20260905201613 | 82 | 79 | 0.9 | 1.7 | 0.00 | 0.03 | 0.03 | 87 | 1008.5 |
| 20260905201112 | 81 | 69 | 0.0 | 0.0 | 0.00 | 0.03 | 0.03 | 84 | 1008.8 |
| 20260905200608 | 82 | 64 | 0.0 | 0.0 | 0.12 | 0.03 | 0.03 | 82 | 1008.7 |
| 20260905195556 | 84 | 40 | 0.9 | 1.7 | 0.00 | 0.01 | 0.01 | 72 | 1008.9 |
| 20260905195051 | 85 | 133 | 4.3 | 5.2 | 0.00 | 0.01 | 0.01 | 70 | 1008.8 |
| 20260905194551 | 85 | 67 | 0.9 | 1.7 | 0.00 | 0.01 | 0.01 | 70 | 1008.9 |
| 20260905194050 | 86 | 97 | 1.7 | 2.6 | 0.00 | 0.01 | 0.01 | 67 | 1008.9 |
| 20260905193545 | 86 | 276 | 3.5 | 4.3 | 0.00 | 0.01 | 0.01 | 66 | 1008.8 |
| 20260905193041 | 86 | 85 | 0.9 | 1.7 | 0.00 | 0.01 | 0.01 | 67 | 1008.9 |
| 20260905192536 | 85 | 31 | 0.9 | 0.9 | 0.00 | 0.01 | 0.01 | 67 | 1008.9 |
| 20260905192032 | 86 | 260 | 4.3 | 4.3 | 0.00 | 0.01 | 0.01 | 67 | 1009.0 |
| 20260905191530 | 87 | 314 | 3.5 | 4.3 | 0.00 | 0.01 | 0.01 | 64 | 1009.2 |
| 20260905191030 | 87 | 32 | 1.7 | 1.7 | 0.00 | 0.01 | 0.01 | 68 | 1009.2 |
| 20260905190528 | 87 | 114 | 0.0 | 0.0 | 0.00 | 0.01 | 0.01 | 68 | 1009.1 |
| 20260905190028 | 87 | 72 | 0.9 | 0.9 | 0.00 | 0.01 | 0.01 | 70 | 1009.1 |
| 20260905185527 | 86 | 55 | 0.9 | 0.9 | 0.00 | 0.01 | 0.01 | 68 | 1009.3 |
| 20260905185026 | 86 | 249 | 3.5 | 4.3 | 0.00 | 0.01 | 0.01 | 69 | 1009.5 |
| 20260905184521 | 85 | 249 | 3.5 | 4.3 | 0.00 | 0.01 | 0.01 | 70 | 1009.5 |
| 20260905184019 | 85 | 337 | 0.9 | 1.7 | 0.00 | 0.01 | 0.01 | 70 | 1009.7 |
| 20260905183514 | 85 | 290 | 2.6 | 2.6 | 0.00 | 0.01 | 0.01 | 72 | 1009.7 |
| 20260905183009 | 84 | 274 | 2.6 | 2.6 | 0.00 | 0.01 | 0.01 | 74 | 1009.9 |
| 20260905182503 | 84 | 283 | 4.3 | 5.2 | 0.00 | 0.01 | 0.01 | 73 | 1009.8 |
| 20260905181957 | 84 | 68 | 0.9 | 0.9 | 0.00 | 0.01 | 0.01 | 73 | 1010.1 |
| 20260905181452 | 84 | 184 | 2.6 | 4.3 | 0.00 | 0.01 | 0.01 | 72 | 1009.8 |
| 20260905180951 | 85 | 68 | 0.9 | 0.9 | 0.00 | 0.01 | 0.01 | 73 | 1009.8 |
| 20260905180446 | 84 | 19 | 2.6 | 2.6 | 0.00 | 0.01 | 0.01 | 74 | 1009.9 |
| 20260905175942 | 84 | 244 | 3.5 | 4.3 | 0.00 | 0.01 | 0.01 | 77 | 1009.9 |
| 20260905175441 | 84 | 114 | 0.0 | 0.9 | 0.00 | 0.01 | 0.01 | 77 | 1009.9 |
| 20260905174936 | 83 | 183 | 3.5 | 5.2 | 0.00 | 0.01 | 0.01 | 76 | 1010.0 |
| 20260905174432 | 83 | 163 | 2.6 | 4.3 | 0.00 | 0.01 | 0.01 | 77 | 1009.9 |
| 20260905173927 | 82 | 20 | 3.5 | 4.3 | 0.00 | 0.01 | 0.01 | 82 | 1009.9 |
| 20260905173424 | 82 | 56 | 2.6 | 2.6 | 0.00 | 0.01 | 0.01 | 80 | 1010.2 |
| 20260905172919 | 82 | 92 | 0.9 | 1.7 | 0.00 | 0.01 | 0.01 | 80 | 1010.4 |
| 20260905172417 | 82 | 239 | 4.3 | 5.2 | 0.00 | 0.01 | 0.01 | 82 | 1010.3 |
| 20260905171913 | 81 | 221 | 1.7 | 1.7 | 0.00 | 0.01 | 0.01 | 82 | 1010.5 |
| 20260905171409 | 81 | 221 | 3.5 | 5.2 | 0.00 | 0.01 | 0.01 | 83 | 1010.4 |
| 20260905170906 | 82 | 265 | 5.2 | 6.1 | 0.00 | 0.01 | 0.01 | 83 | 1010.5 |
| 20260905170401 | 82 | 64 | 0.9 | 0.9 | 0.00 | 0.01 | 0.01 | 82 | 1010.5 |
| 20260905165901 | 82 | 176 | 2.6 | 2.6 | 0.00 | 0.01 | 0.01 | 84 | 1010.4 |
| 20260905165355 | 82 | 37 | 2.6 | 5.2 | 0.00 | 0.01 | 0.01 | 82 | 1010.3 |
| 20260905164850 | 82 | 249 | 5.2 | 6.1 | 0.00 | 0.01 | 0.01 | 81 | 1010.7 |
| 20260905164345 | 82 | 249 | 5.2 | 6.1 | 0.00 | 0.01 | 0.01 | 81 | 1010.7 |
| 20260905163841 | 82 | 165 | 0.9 | 1.7 | 0.00 | 0.01 | 0.01 | 83 | 1010.5 |
| 20260905163337 | 82 | 359 | 2.6 | 4.3 | 0.00 | 0.01 | 0.01 | 82 | 1010.7 |
| 20260905162832 | 80 | 34 | 0.9 | 0.9 | 0.00 | 0.01 | 0.01 | 85 | 1010.7 |
| 20260905162326 | 80 | 65 | 1.7 | 1.7 | 0.00 | 0.01 | 0.01 | 85 | 1010.6 |
| 20260905161827 | 80 | 74 | 1.7 | 1.7 | 0.00 | 0.01 | 0.01 | 86 | 1010.3 |
| 20260905161327 | 79 | 67 | 0.0 | 0.0 | 0.00 | 0.01 | 0.01 | 87 | 1010.5 |
| 20260905160825 | 78 | 62 | 0.9 | 0.9 | 0.00 | 0.01 | 0.01 | 90 | 1010.5 |
| 20260905160319 | 78 | 62 | 0.9 | 0.9 | 0.00 | 0.01 | 0.01 | 90 | 1010.5 |
| 20260905155813 | 78 | 61 | 0.0 | 0.9 | 0.00 | 0.01 | 0.01 | 91 | 1010.3 |
| 20260905155307 | 77 | 60 | 0.0 | 0.0 | 0.00 | 0.01 | 0.01 | 91 | 1010.1 |
| 20260905154801 | 77 | 70 | 3.5 | 4.3 | 0.00 | 0.01 | 0.01 | 90 | 1010.2 |
| 20260905154257 | 77 | 86 | 2.6 | 2.6 | 0.00 | 0.01 | 0.01 | 91 | 1010.4 |
| 20260905153752 | 76 | 66 | 0.9 | 0.9 | 0.00 | 0.01 | 0.01 | 91 | 1010.4 |
| 20260905153248 | 76 | 55 | 1.7 | 1.7 | 0.00 | 0.01 | 0.01 | 91 | 1010.2 |
| 20260905152742 | 76 | 73 | 0.9 | 1.7 | 0.00 | 0.01 | 0.01 | 92 | 1010.7 |
| 20260905152237 | 76 | 18 | 2.6 | 2.6 | 0.00 | 0.01 | 0.01 | 92 | 1010.9 |
| 20260905151736 | 75 | 63 | 2.6 | 2.6 | 0.00 | 0.01 | 0.01 | 93 | 1010.2 |
| 20260905151232 | 75 | 85 | 3.5 | 4.3 | 0.00 | 0.01 | 0.01 | 94 | 1009.8 |
| 20260905150726 | 75 | 72 | 2.6 | 2.6 | 0.00 | 0.01 | 0.01 | 95 | 1010.3 |
| 20260905150225 | 75 | 66 | 0.9 | 0.9 | 0.00 | 0.01 | 0.01 | 95 | 1010.8 |
| 20260905145723 | 75 | 59 | 0.0 | 0.0 | 0.00 | 0.01 | 0.01 | 95 | 1011.2 |
| 20260905145218 | 75 | 62 | 1.7 | 1.7 | 0.00 | 0.01 | 0.01 | 94 | 1011.1 |
| 20260905144717 | 75 | 77 | 1.7 | 1.7 | 0.00 | 0.01 | 0.01 | 94 | 1011.1 |
| 20260905144212 | 75 | 70 | 0.9 | 1.7 | 0.00 | 0.01 | 0.01 | 95 | 1010.7 |
| 20260905143712 | 75 | 63 | 2.6 | 2.6 | 0.00 | 0.01 | 0.01 | 95 | 1010.8 |
| 20260905143212 | 75 | 62 | 0.0 | 0.0 | 0.00 | 0.01 | 0.01 | 97 | 1011.3 |
| 20260905142705 | 74 | 59 | 0.0 | 0.0 | 0.00 | 0.01 | 0.01 | 97 | 1011.6 |
| 20260905142205 | 74 | 64 | 0.0 | 0.0 | 0.00 | 0.01 | 0.01 | 97 | 1011.4 |
| 20260905141701 | 74 | 58 | 1.7 | 1.7 | 0.00 | 0.01 | 0.01 | 97 | 1010.9 |
| 20260905141156 | 74 | 65 | 0.9 | 0.9 | 0.00 | 0.01 | 0.01 | 96 | 1011.1 |
| 20260905140651 | 74 | 67 | 0.9 | 1.7 | 0.00 | 0.01 | 0.01 | 97 | 1011.0 |
| 20260905140145 | 74 | 67 | 0.9 | 0.9 | 0.00 | 0.01 | 0.01 | 96 | 1011.4 |
| 20260905135640 | 73 | 40 | 0.9 | 0.9 | 0.00 | 0.01 | 0.01 | 95 | 1011.3 |
| 20260905135136 | 74 | 149 | 0.0 | 0.9 | 0.00 | 0.01 | 0.01 | 95 | 1011.7 |
| 20260905134630 | 74 | 60 | 0.0 | 0.0 | 0.00 | 0.01 | 0.01 | 97 | 1011.6 |
| 20260905134129 | 74 | 2 | 1.7 | 1.7 | 0.00 | 0.01 | 0.01 | 95 | 1011.5 |
| 20260905133625 | 73 | 77 | 1.7 | 2.6 | 0.00 | 0.01 | 0.01 | 96 | 1011.9 |
| 20260905133125 | 73 | 44 | 1.7 | 1.7 | 0.00 | 0.01 | 0.01 | 98 | 1011.9 |
| 20260905132624 | 73 | 75 | 0.0 | 0.0 | 0.00 | 0.01 | 0.01 | 99 | 1011.8 |
| 20260905132119 | 73 | 17 | 0.0 | 0.0 | 0.00 | 0.01 | 0.01 | 99 | 1011.8 |
| 20260905131614 | 72 | 50 | 0.0 | 0.0 | 0.00 | 0.01 | 0.01 | 99 | 1012.1 |
| 20260905131110 | 72 | 71 | 0.9 | 0.9 | 0.00 | 0.01 | 0.01 | 99 | 1011.9 |
| 20260905130609 | 72 | 234 | 3.5 | 4.3 | 0.00 | 0.01 | 0.01 | 99 | 1012.0 |
| 20260905125603 | 73 | 61 | 0.0 | 0.0 | 0.00 | 0.01 | 0.01 | 99 | 1012.0 |
| 20260905125059 | 73 | 68 | 0.0 | 0.0 | 0.00 | 0.01 | 0.01 | 99 | 1011.9 |
| 20260905124555 | 73 | 33 | 0.9 | 0.9 | 0.00 | 0.01 | 0.01 | 99 | 1012.1 |
| 20260905124051 | 73 | 56 | 0.9 | 0.9 | 0.00 | 0.01 | 0.01 | 99 | 1011.9 |
| 20260905123546 | 73 | 125 | 2.6 | 2.6 | 0.00 | 0.01 | 0.01 | 99 | 1011.7 |
| 20260905123043 | 73 | 43 | 0.9 | 0.9 | 0.00 | 0.01 | 0.01 | 99 | 1011.8 |
| 20260905122543 | 73 | 40 | 0.9 | 0.9 | 0.00 | 0.01 | 0.01 | 99 | 1011.8 |
| 20260905122037 | 73 | 38 | 0.0 | 0.0 | 0.00 | 0.01 | 0.01 | 99 | 1011.7 |
| 20260905121532 | 73 | 214 | 3.5 | 5.2 | 0.00 | 0.01 | 0.01 | 99 | 1011.6 |
| 20260905121027 | 73 | 83 | 0.9 | 0.9 | 0.00 | 0.01 | 0.01 | 99 | 1011.6 |
| 20260905120526 | 73 | 260 | 1.7 | 1.7 | 0.00 | 0.01 | 0.01 | 99 | 1011.9 |
| 20260905120022 | 73 | 304 | 2.6 | 2.6 | 0.00 | 0.01 | 0.01 | 99 | 1011.6 |
| 20260905115520 | 73 | 48 | 0.0 | 0.0 | 0.00 | 0.01 | 0.01 | 99 | 1010.6 |
| 20260905115016 | 73 | 48 | 0.0 | 0.0 | 0.00 | 0.01 | 0.01 | 99 | 1010.3 |
| 20260905114515 | 73 | 41 | 0.0 | 0.0 | 0.00 | 0.01 | 0.01 | 99 | 1010.3 |
| 20260905114014 | 73 | 49 | 0.0 | 0.0 | 0.00 | 0.01 | 0.01 | 99 | 1010.4 |
| 20260905113509 | 73 | 58 | 0.9 | 1.7 | 0.00 | 0.01 | 0.01 | 99 | 1010.2 |
| 20260905113005 | 73 | 65 | 0.0 | 0.9 | 0.00 | 0.01 | 0.01 | 99 | 1009.9 |
| 20260905112500 | 73 | 294 | 3.5 | 4.3 | 0.00 | 0.01 | 0.01 | 99 | 1010.2 |
| 20260905111955 | 71 | 258 | 5.2 | 7.0 | 0.00 | 0.01 | 0.01 | 99 | 1010.0 |
| 20260905111450 | 71 | 50 | 0.0 | 0.0 | 0.00 | 0.01 | 0.01 | 99 | 1009.2 |
| 20260905110949 | 71 | 61 | 0.0 | 0.0 | 0.00 | 0.01 | 0.01 | 99 | 1009.0 |
| 20260905110449 | 71 | 64 | 0.0 | 0.0 | 0.00 | 0.01 | 0.01 | 99 | 1009.1 |
| 20260905105948 | 71 | 63 | 0.0 | 0.0 | 0.00 | 0.01 | 0.01 | 99 | 1008.9 |
| 20260905105443 | 71 | 63 | 0.0 | 0.0 | 0.00 | 0.01 | 0.01 | 99 | 1009.3 |
| 20260905104942 | 71 | 63 | 0.0 | 0.0 | 0.00 | 0.01 | 0.01 | 99 | 1009.1 |
| 20260905104439 | 71 | 66 | 0.0 | 0.0 | 0.00 | 0.01 | 0.01 | 99 | 1009.1 |
| 20260905103933 | 71 | 58 | 0.0 | 0.0 | 0.00 | 0.01 | 0.01 | 99 | 1009.1 |
| 20260905103428 | 71 | 66 | 0.0 | 0.9 | 0.00 | 0.01 | 0.01 | 99 | 1009.0 |
| 20260905102924 | 71 | 65 | 0.9 | 0.9 | 0.00 | 0.01 | 0.01 | 99 | 1008.9 |
| 20260905102420 | 71 | 63 | 1.7 | 1.7 | 0.00 | 0.01 | 0.01 | 99 | 1009.3 |
| 20260905101915 | 71 | 61 | 0.0 | 0.0 | 0.00 | 0.01 | 0.01 | 99 | 1009.1 |
| 20260905101414 | 71 | 66 | 0.0 | 0.0 | 0.00 | 0.01 | 0.01 | 99 | 1009.2 |
| 20260905100909 | 71 | 61 | 0.0 | 0.0 | 0.00 | 0.01 | 0.01 | 99 | 1009.2 |
| 20260905100405 | 71 | 53 | 0.0 | 0.0 | 0.00 | 0.01 | 0.01 | 99 | 1009.3 |
| 20260905095904 | 71 | 52 | 0.0 | 0.0 | 0.00 | 0.01 | 0.01 | 99 | 1009.3 |
| 20260905095358 | 71 | 52 | 0.0 | 0.0 | 0.00 | 0.01 | 0.01 | 99 | 1009.2 |
| 20260905094853 | 72 | 59 | 0.0 | 0.0 | 0.00 | 0.01 | 0.01 | 99 | 1008.9 |
| 20260905094349 | 72 | 78 | 1.7 | 1.7 | 0.07 | 0.01 | 0.01 | 99 | 1008.9 |
| 20260905093847 | 72 | 63 | 1.7 | 1.7 | 0.07 | 0.01 | 0.01 | 99 | 1008.8 |
| 20260905093343 | 72 | 77 | 3.5 | 4.3 | 0.07 | 0.01 | 0.01 | 99 | 1008.8 |
| 20260905092839 | 72 | 76 | 1.7 | 1.7 | 0.00 | 0.00 | 0.00 | 99 | 1009.2 |
| 20260905092338 | 72 | 61 | 1.7 | 1.7 | 0.00 | 0.00 | 0.00 | 99 | 1009.3 |
| 20260905091834 | 72 | 65 | 0.9 | 0.9 | 0.00 | 0.00 | 0.00 | 99 | 1009.3 |
| 20260905091333 | 72 | 70 | 0.9 | 1.7 | 0.00 | 0.00 | 0.00 | 99 | 1009.4 |
| 20260905090832 | 71 | 49 | 0.0 | 0.0 | 0.00 | 0.00 | 0.00 | 99 | 1009.8 |
| 20260905090323 | 71 | 51 | 0.0 | 0.0 | 0.00 | 0.00 | 0.00 | 99 | 1009.3 |
| 20260905085822 | 70 | 45 | 0.0 | 0.0 | 0.00 | 0.00 | 0.00 | 99 | 1009.3 |
| 20260905085316 | 70 | 37 | 0.0 | 0.0 | 0.00 | 0.00 | 0.00 | 99 | 1008.9 |
| 20260905084812 | 71 | 68 | 0.0 | 0.0 | 0.00 | 0.00 | 0.00 | 99 | 1009.1 |
| 20260905084311 | 70 | 55 | 0.0 | 0.0 | 0.00 | 0.00 | 0.00 | 99 | 1009.0 |
| 20260905083806 | 70 | 60 | 0.0 | 0.0 | 0.00 | 0.00 | 0.00 | 99 | 1009.2 |
| 20260905083302 | 70 | 60 | 0.0 | 0.0 | 0.00 | 0.00 | 0.00 | 99 | 1009.0 |
| 20260905082757 | 70 | 48 | 0.0 | 0.0 | 0.00 | 0.00 | 0.00 | 99 | 1009.0 |
| 20260905082254 | 71 | 65 | 0.0 | 0.0 | 0.00 | 0.00 | 0.00 | 99 | 1009.0 |
| 20260905081753 | 71 | 65 | 0.0 | 0.0 | 0.00 | 0.00 | 0.00 | 99 | 1008.8 |
| 20260905081249 | 70 | 61 | 0.0 | 0.0 | 0.00 | 0.00 | 0.00 | 99 | 1009.1 |
| 20260905080743 | 71 | 61 | 0.0 | 0.0 | 0.00 | 0.00 | 0.00 | 99 | 1008.9 |
| 20260905080243 | 71 | 61 | 0.0 | 0.0 | 0.00 | 0.00 | 0.00 | 99 | 1009.1 |
| 20260905075741 | 71 | 61 | 0.0 | 0.0 | 0.00 | 0.00 | 0.00 | 99 | 1009.2 |
| 20260905075241 | 71 | 62 | 0.0 | 0.0 | 0.00 | 0.00 | 0.00 | 99 | 1009.0 |
| 20260905074740 | 71 | 74 | 0.0 | 0.0 | 0.00 | 0.00 | 0.00 | 99 | 1009.1 |
| 20260905074236 | 71 | 65 | 0.0 | 0.0 | 0.00 | 0.00 | 0.00 | 99 | 1009.3 |
| 20260905073731 | 71 | 66 | 0.0 | 0.0 | 0.00 | 0.00 | 0.00 | 99 | 1009.2 |
| 20260905073227 | 71 | 65 | 0.0 | 0.0 | 0.00 | 0.00 | 0.00 | 99 | 1009.4 |
| 20260905072726 | 71 | 65 | 0.0 | 0.0 | 0.00 | 0.00 | 0.00 | 99 | 1009.4 |
| 20260905072221 | 71 | 60 | 0.0 | 0.0 | 0.00 | 0.00 | 0.00 | 99 | 1009.4 |